Location: Gollag?dem
(17.0207°N, 80.7261°E)
Time: 07:43:06
(UTC+00:00)

Resurs 01 Rocket - Pass Details

Date: 03 August 2024
Orbit: 630 x 639 km, 97.8° (Epoch: 11 September)

Event Time Altitude Azimuth Distance (km) Brightness Sun altitude
Exits shadow 15:23:14 29° 252° (WSW) 1,159 3.2 -30.0°
Maximum altitude 15:23:34 29° 261° (W) 1,150 3.3 -30.1°
Drops below altitude 10° 15:27:23 10° 322° (NW) 2,014 5.0 -30.8°
Sets 15:29:49 0° 333° (NNW) 2,925 5.9 -31.3°
